Lid_Strength_Index
6 6 6 6 6 6 6 6 5 5 5 5 5 5 4 5 4 5 4 2 4 5 3 2 2 4 4 5 8 5 6 5 6 9 10 10 11 9 11 10 12 12 15 15 14 16 16 7 7 12 10 7 7 6
6 6 7 7 6 6 6 6 6 5 5 5 5 5 5 4 4 4 4 0 -1 2 3 0 1 0 2 3 4 5 6 6 6 8 8 9 11 9 10 14 8 12 10 12 13 13 8 6 7 6 6 7 6 6
6 7 7 7 6 6 6 6 6 6 5 5 5 4 4 3 3 3 2 -1 0 3 3 3 3 1 -0 1 1 6 5 4 5 4 8 8 10 8 12 11 9 7 7 10 9 9 8 7 6 5 5 5 5 5
7 7 7 7 6 6 6 6 6 5 5 5 4 3 3 2 2 1 0 -1 0 2 5 4 0 2 0 1 2 2 3 3 4 5 8 8 10 6 9 8 9 8 7 8 9 8 7 6 5 5 4 4 5 4
7 7 7 7 6 6 6 6 5 5 5 4 3 2 2 1 1 -0 -1 -1 -1 3 6 5 2 1 1 1 2 2 3 4 7 9 8 9 6 8 7 7 9 8 9 10 10 7 7 7 5 4 5 5 4 4
7 7 7 7 6 6 6 5 5 5 4 3 2 2 1 1 0 -0 3 -1 -1 0 5 7 2 2 2 1 2 3 3 7 8 9 8 7 5 8 10 11 6 6 5 5 7 5 5 4 4 5 4 5 4 4
7 7 7 6 6 6 5 5 5 4 2 2 2 1 1 -0 -1 2 3 1 1 -0 5 7 6 3 2 2 3 3 5 7 8 8 9 8 8 7 10 12 8 6 6 5 4 4 6 5 7 5 4 4 3 3
8 7 7 6 6 5 5 4 3 2 2 1 1 1 -0 -1 1 2 -1 -0 0 2 3 8 7 5 2 5 6 3 5 7 7 7 7 9 8 9 11 8 7 6 5 5 5 4 5 5 5 6 5 5 5 5
7 7 6 6 6 5 4 3 2 2 1 1 0 1 0 1 1 1 0 1 -1 1 6 6 9 10 3 5 5 5 5 9 7 8 8 8 10 12 8 7 6 6 6 6 5 5 5 6 6 7 6 6 6 6
7 7 7 6 5 4 3 2 2 2 1 0 0 1 3 1 -0 -0 1 3 3 2 4 7 5 9 5 6 7 7 6 9 11 8 6 10 11 6 5 4 4 4 4 4 5 7 7 7 7 7 7 7 6 6
7 7 6 6 5 3 2 2 2 1 1 0 2 3 -0 -0 0 3 5 6 5 7 5 5 5 7 4 8 8 6 9 8 12 9 10 11 12 8 5 4 3 3 4 4 4 5 5 5 6 6 6 6 6 5
7 6 6 5 3 3 2 2 2 1 0 0 2 -0 -0 2 3 6 7 6 7 9 6 7 7 6 5 4 7 6 9 7 11 6 10 13 9 6 5 5 4 3 3 3 4 4 4 4 4 4 4 4 4 3
7 6 5 3 3 2 2 2 1 0 -0 -1 2 3 4 4 10 10 11 9 9 6 6 6 8 5 5 4 7 7 9 10 6 10 13 10 7 5 4 4 4 3 3 3 3 3 3 3 3 3 4 3 3 3
6 5 3 3 2 2 2 1 0 -1 0 3 4 10 7 8 8 8 9 8 6 6 6 6 7 7 5 7 6 10 7 7 12 14 13 8 6 5 4 3 4 4 3 3 3 3 2 2 3 2 2 2 2 3
4 3 3 2 2 2 1 1 -0 -1 1 4 4 10 8 6 5 5 5 6 5 4 5 6 6 6 7 8 6 8 10 12 12 13 9 6 5 4 4 3 3 3 3 3 3 3 3 3 2 3 2 2 2 1
3 3 2 2 2 2 1 -0 -2 -1 1 3 4 6 5 6 7 6 6 6 3 4 4 5 7 8 8 8 9 11 12 13 11 8 6 5 5 4 4 3 3 3 3 3 3 3 2 2 2 2 2 1 2 2
4 1 3 2 2 2 1 -1 -0 2 3 4 5 3 5 6 6 6 6 5 2 5 7 7 9 10 7 9 11 9 11 9 7 6 4 4 4 4 3 3 3 3 3 3 2 2 3 2 2 2 3 2 1 1
1 1 1 2 2 -0 -1 -0 1 3 5 4 6 5 4 4 5 4 4 3 4 5 6 8 6 10 11 12 12 9 6 5 4 4 4 3 3 2 2 3 2 2 2 2 2 2 2 2 3 3 2 1 1 1
2 2 2 2 2 1 2 2 1 5 4 4 4 3 3 4 3 2 3 2 2 3 4 6 9 10 10 8 8 6 5 5 5 4 3 2 2 2 2 2 2 2 2 2 2 3 2 2 2 2 2 1 2 2
2 3 2 2 1 1 4 2 0 3 5 4 3 4 4 4 3 3 3 3 3 5 7 8 8 7 6 5 4 4 4 3 3 4 4 3 3 2 2 2 3 1 2 1 2 3 2 2 1 1 1 1 2 2
3 1 2 0 -0 -0 1 2 3 2 3 4 3 3 4 3 4 4 4 3 5 6 7 6 5 3 2 2 2 2 2 2 3 3 4 4 3 3 3 3 2 3 3 3 3 2 3 2 2 1 1 1 1 1
0 2 -0 0 1 1 2 1 3 1 3 4 3 3 5 5 5 4 3 5 5 5 4 3 3 2 2 2 2 2 2 2 1 3 4 3 3 3 3 2 3 3 3 3 3 3 2 1 1 1 1 1 2 2
2 0 0 1 4 4 5 1 4 4 6 5 4 6 5 5 4 2 5 4 4 2 2 2 2 1 2 1 1 1 1 1 2 3 3 3 3 2 2 2 2 3 4 3 2 2 2 4 2 1 1 2 2 1
4 1 4 4 4 6 2 5 3 4 4 5 6 7 6 5 3 5 6 5 3 2 2 2 1 2 2 1 2 2 2 1 2 2 3 3 3 3 3 3 2 2 3 2 2 2 1 2 3 1 1 1 1 2
5 5 5 10 3 5 6 6 5 5 7 6 7 7 5 4 7 7 7 5 4 3 3 2 2 2 3 2 2 1 0 2 2 3 2 2 3 3 3 3 2 3 3 2 3 3 2 2 1 2 1 2 2 2
9 5 7 5 5 6 5 7 7 7 6 7 6 4 4 5 8 9 6 4 3 3 3 2 2 3 2 2 2 2 2 1 1 2 2 2 2 3 4 4 4 4 2 2 3 3 3 3 2 2 2 2 6 2
8 6 3 2 3 3 5 4 3 5 7 7 5 6 6 8 9 6 3 2 2 1 1 1 1 2 2 2 1 0 0 0 1 1 1 1 2 2 3 4 4 3 2 2 2 3 3 3 3 2 2 2 1 2
4 4 6 4 4 3 6 5 6 7 5 4 4 7 8 8 8 3 2 0 0 0 1 0 0 0 1 1 0 0 0 -0 0 1 1 1 1 2 2 2 2 8 3 2 3 3 3 3 2 2 2 3 2 1
4 2 3 5 5 4 5 5 5 4 3 3 5 6 6 3 2 2 1 0 -0 0 1 2 1 0 0 0 -0 -0 0 1 2 4 4 4 4 3 2 3 2 2 2 2 6 6 2 2 2 2 2 2 2 2
4 2 5 5 6 6 4 2 3 2 2 2 1 2 2 2 1 -0 0 1 1 1 1 1 1 1 2 2 2 1 0 1 2 3 4 5 4 3 3 3 3 2 2 2 2 1 6 3 4 2 3 3 2 2
2 3 5 4 5 3 2 2 1 2 2 2 2 3 3 2 1 0 0 0 1 1 1 1 1 1 1 2 2 2 3 1 2 2 3 3 3 4 4 3 3 2 2 2 2 2 2 2 2 2 3 3 4 4
3 5 5 7 5 3 2 3 3 4 3 4 4 3 3 3 4 2 -0 0 1 1 4 2 1 1 1 1 1 1 8 2 3 3 3 4 5 4 4 4 3 3 2 2 2 3 3 3 3 4 4 4 4 5
4 4 4 5 5 5 3 4 4 5 4 5 4 4 3 4 5 2 -0 -1 -0 0 0 0 0 -0 0 1 1 1 5 1 6 10 10 10 10 8 6 5 5 4 3 3 3 3 4 4 4 4 5 5 5 5